Regional Weather Roundup
Issued by NWS

Home | Current Version | Previous Version | Graphics & Text | Print | Product List | Glossary On
Versions: 1 2 3 4 5 6 7 8 9 10 11 12 13 14 15 16 17 18 19 20 21 22 23 24 25 26 27 28 29 30 31 32 33 34 35 36 37 38 39 40 41 42 43 44 45 46 47 48 49 50
059
ASUS43 KLOT 072312
RWRIL

ILLINOIS REGIONAL WEATHER ROUNDUP
NATIONAL WEATHER SERVICE CHICAGO/ROMEOVILLE IL
500 PM CST WED DEC 07 2016

NOTE: "FAIR" INDICATES FEW OR NO CLOUDS BELOW 12,000 FEET WITH NO
SIGNIFICANT WEATHER AND/OR OBSTRUCTIONS TO VISIBILITY.

* THESE STATIONS ARE NOT UNDER NWS QUALITY CONTROL. THEY ALSO MAY NOT
  REPORT WEATHER SUCH AS PRECIPITATION OR FOG.

ILZ001-002-007-009-015-016-024-080000-
NORTHWEST ILLINOIS

CITY           SKY/WX    TMP DP  RH WIND       PRES   REMARKS
MOLINE         PTCLDY    26  13  57 W15G25    30.20R WCI  14
STERLING*      CLOUDY    24  18  77 W18       30.17R WCI  10
SAVANNA*       CLOUDY    23  15  71 W16       30.19R WCI  10
$$

ILZ003-004-008-010-011-017-018-080000-
NORTH CENTRAL ILLINOIS

CITY           SKY/WX    TMP DP  RH WIND       PRES   REMARKS
ROCKFORD       CLOUDY    24  16  71 W9        30.16R WCI  14
FREEPORT*      CLOUDY    21  14  75 W17G26    30.16R WCI   6
ROCHELLE*      PTCLDY    23  17  78 W18       30.16R WCI   9
DE KALB*       CLOUDY    23  18  80 W16G22    30.14R WCI   9
$$

ILZ005-006-012>014-019>023-080000-
NORTHEAST ILLINOIS

CITY           SKY/WX    TMP DP  RH WIND       PRES   REMARKS
CHICAGO-OHARE  CLOUDY    24  17  74 W18G24    30.11R WCI  10
CHICAGO-MIDWAY CLOUDY    27  17  66 W18G28    30.13R WCI  14
AURORA         CLOUDY    25  18  74 W17       30.14R WCI  12
LANSING*       CLEAR     27  21  77 W12G20    30.13S WCI  17
JOLIET*        MOCLDY    28  22  76 W8G16     30.16R WCI  20
WAUKEGAN       PTCLDY    24  17  74 SW12G22   30.07R WCI  13
DUPAGE AIRPORT CLOUDY    24  16  71 W14       30.12R WCI  12
KANKAKEE*      MOCLDY    29  22  75 W12       30.17S WCI  19
WHEELING       PTCLDY    24  16  71 W14G24    30.11R WCI  12
MORRIS*        CLOUDY    27  21  77 W13       30.16R WCI  17
ROMEOVILLE*    PTCLDY    25  22  87 W12       30.14R WCI  15
NORTHERLY ISL    N/A     27  19  72 W16         N/A  WCI  15
$$

LMZ740>746-080000-
SOUTHERN LAKE MICHIGAN

STATION/POSITION SKY/WX   TEMP    WIND        PRES    VSBY  WAVE
                          AIR SEA DIR/SP/G                  HT/PER
                          (F)     (DEG/KT/KT) (MB)    (MI)  (FT/S)
HARRISON CRIB              28     250/ 19/ 22   N/A
BURNHAM HARBOR             27     240/  7/ 15   N/A
CALUMET HARBOR             27     240/  8/ 16 1019.2R
BURNS HARBOR               30     230/ 15/ 22 1020.3R
MICHIGAN CITY              30     210/ 29/ 32   N/A
$$

ILZ025>027-034>036-040-047-049-050-058-095>099-080000-
WEST-CENTRAL ILLINOIS

CITY           SKY/WX    TMP DP  RH WIND       PRES   REMARKS
QUINCY         CLEAR     28  15  58 NW16      30.25R WCI  16
GALESBURG*     PTCLDY    25  18  74 W14       30.23R WCI  14
MACOMB*        CLEAR     27  18  69 NW10      30.26R WCI  17
JACKSONVILLE*  PTCLDY    31  19  61 W8        30.23S WCI  23
PITTSFIELD*    PTCLDY    32  19  58 W7        30.25R WCI  25
$$

ILZ028>032-037-038-041>044-048-051>054-059>061-080000-
CENTRAL ILLINOIS

CITY           SKY/WX    TMP DP  RH WIND       PRES   REMARKS
PONTIAC        CLOUDY    31  23  74 W17       30.19R WCI  19
BLOOMINGTON    CLEAR     29  20  69 W14       30.19R WCI  18
DECATUR        MOCLDY    31  18  58 W9        30.21R WCI  23
PEORIA         PTCLDY    29  17  61 W8        30.22R WCI  21
LACON*         CLOUDY    27  17  65 W13       30.20R WCI  16
LINCOLN*       CLOUDY    31  21  66 W5        30.21S WCI  26
SPRINGFIELD    CLEAR     32  22  66 W9        30.23R WCI  24
TAYLORVILLE    CLOUDY    32  21  64 W9        30.23R WCI  24
$$

ILZ033-039-045-046-055>057-062-063-080000-
EAST-CENTRAL ILLINOIS

CITY           SKY/WX    TMP DP  RH WIND       PRES   REMARKS
CHAMPAIGN      MOCLDY    31  21  66 W13       30.19R WCI  21
RANTOUL*       CLOUDY    33  25  74 W10       30.18S WCI  24
MATTOON        CLOUDY    32  22  66 W10       30.20R WCI  24
PARIS*         CLOUDY    32  27  81 W6        30.20S WCI  26
$$

ILZ079-100>102-080000-
SOUTHWEST ILLINOIS

CITY           SKY/WX    TMP DP  RH WIND       PRES   REMARKS
ALTON          CLOUDY    32  21  64 W9        30.25R WCI  24
BELLEVILLE     CLOUDY    35  18  48 W6        30.24R WCI  30
CAHOKIA*       CLOUDY    37  18  46 W6        30.25R WCI  32
SPARTA*        CLOUDY    36  22  57 CALM      30.26R
$$

ILZ064>066-069>071-074>076-080>082-084>086-088>090-092>094-080000-
SOUTH-CENTRAL ILLINOIS

CITY           SKY/WX    TMP DP  RH WIND       PRES   REMARKS
CARBONDALE     CLOUDY    37  23  56 N8        30.24R WCI  31
CAIRO*         CLOUDY    40  25  56 N7        30.22R
EFFINGHAM*     CLOUDY    34  23  64 W8        30.23S WCI  28
MARION         CLOUDY    37  23  56 N5        30.25  WCI  34
CENTRALIA*     CLOUDY    35  26  68 CALM      30.23R
SALEM*         CLOUDY    36  23  59 W3        30.23R
METROPOLIS*    CLOUDY    40  23  50 N9        30.23R
$$

ILZ067-068-072-073-078-083-087-091-080000-
SOUTHEAST ILLINOIS

CITY           SKY/WX    TMP DP  RH WIND       PRES   REMARKS
LAWRENCEVILLE  CLOUDY    35  24  64 W9        30.22R WCI  28
FLORA*         CLOUDY    36  23  59 NW7       30.23S WCI  30
FAIRFIELD*     CLOUDY    36  23  59 CALM      30.22S
HARRISBURG*    CLOUDY    37  26  64 NW6       30.25R WCI  32
ROBINSON*      CLOUDY    33  25  71 W7        30.22S WCI  27
CARMI*         CLOUDY    36  27  71 NW5       30.23R WCI  32
$$

ABBREVIATIONS USED IN REMARKS
   TC - TEMPERATURE IN CELSIUS
  WCI - WIND CHILL INDEX
   HX - HEAT INDEX
  VSB - VISIBILITY
$$





USA.gov is the U.S. government's official web portal to all federal, state and local government web resources and services.